Year,Month,Day,Hour,Minute,Value (Times are PST for temperature in C)
2018,10,23,00,00,5.20
2018,10,23,00,01,5.20
2018,10,23,00,02,5.20
2018,10,23,00,03,5.20
2018,10,23,00,04,5.20
2018,10,23,00,05,5.10
2018,10,23,00,06,5.10
2018,10,23,00,07,5.10
2018,10,23,00,08,5.10
2018,10,23,00,09,5.10
2018,10,23,00,10,5.10
2018,10,23,00,11,5.10
2018,10,23,00,12,5.10
2018,10,23,00,13,5.10
2018,10,23,00,14,5.10
2018,10,23,00,15,5.00
2018,10,23,00,16,5.00
2018,10,23,00,17,5.00
2018,10,23,00,18,5.00
2018,10,23,00,19,5.00
2018,10,23,00,20,5.00
2018,10,23,00,21,4.90
2018,10,23,00,22,4.90
2018,10,23,00,23,4.90
2018,10,23,00,24,4.90
2018,10,23,00,25,4.90
2018,10,23,00,26,4.90
2018,10,23,00,27,4.90
2018,10,23,00,28,4.90
2018,10,23,00,29,4.90
2018,10,23,00,30,4.90
2018,10,23,00,31,4.90
2018,10,23,00,32,4.90
2018,10,23,00,33,4.90
2018,10,23,00,34,4.90
2018,10,23,00,35,4.80
2018,10,23,00,36,4.80
2018,10,23,00,37,4.80
2018,10,23,00,38,4.80
2018,10,23,00,39,4.80
2018,10,23,00,40,4.80
2018,10,23,00,41,4.80
2018,10,23,00,42,4.80
2018,10,23,00,43,4.80
2018,10,23,00,44,4.80
2018,10,23,00,45,4.80
2018,10,23,00,46,4.80
2018,10,23,00,47,4.80
2018,10,23,00,48,4.80
2018,10,23,00,49,4.80
2018,10,23,00,50,4.80
2018,10,23,00,51,4.80
2018,10,23,00,52,4.80
2018,10,23,00,53,4.70
2018,10,23,00,54,4.70
2018,10,23,00,55,4.70
2018,10,23,00,56,4.70
2018,10,23,00,57,4.70
2018,10,23,00,58,4.70
2018,10,23,00,59,4.70
2018,10,23,01,00,4.70
2018,10,23,01,01,4.70
2018,10,23,01,02,4.70
2018,10,23,01,03,4.70
2018,10,23,01,04,4.70
2018,10,23,01,05,4.70
2018,10,23,01,06,4.70
2018,10,23,01,07,4.70
2018,10,23,01,08,4.70
2018,10,23,01,09,4.70
2018,10,23,01,10,4.60
2018,10,23,01,11,4.60
2018,10,23,01,12,4.60
2018,10,23,01,13,4.60
2018,10,23,01,14,4.60
2018,10,23,01,15,4.60
2018,10,23,01,16,4.60
2018,10,23,01,17,4.60
2018,10,23,01,18,4.60
2018,10,23,01,19,4.60
2018,10,23,01,20,4.60
2018,10,23,01,21,4.60
2018,10,23,01,22,4.60
2018,10,23,01,23,4.60
2018,10,23,01,24,4.60
2018,10,23,01,25,4.60
2018,10,23,01,26,4.70
2018,10,23,01,27,4.70
2018,10,23,01,28,4.60
2018,10,23,01,29,4.60
2018,10,23,01,30,4.60
2018,10,23,01,31,4.60
2018,10,23,01,32,4.60
2018,10,23,01,33,4.60
2018,10,23,01,34,4.60
2018,10,23,01,35,4.60
2018,10,23,01,36,4.60
2018,10,23,01,37,4.70
2018,10,23,01,38,4.70
2018,10,23,01,39,4.70
2018,10,23,01,40,4.70
2018,10,23,01,41,4.70
2018,10,23,01,42,4.70
2018,10,23,01,43,4.70
2018,10,23,01,44,4.70
2018,10,23,01,45,4.70
2018,10,23,01,46,4.80
2018,10,23,01,47,4.80
2018,10,23,01,48,4.80
2018,10,23,01,49,4.80
2018,10,23,01,50,4.80
2018,10,23,01,51,4.80
2018,10,23,01,52,4.80
2018,10,23,01,53,4.80
2018,10,23,01,54,4.80
2018,10,23,01,55,4.80
2018,10,23,01,56,4.90
2018,10,23,01,57,4.90
2018,10,23,01,58,4.90
2018,10,23,01,59,4.90
2018,10,23,02,00,4.90
2018,10,23,02,01,4.90
2018,10,23,02,02,5.00
2018,10,23,02,03,5.00
2018,10,23,02,04,5.00
2018,10,23,02,05,5.10
2018,10,23,02,06,5.10
2018,10,23,02,07,5.10
2018,10,23,02,08,5.10
2018,10,23,02,09,5.10
2018,10,23,02,10,5.10
2018,10,23,02,11,5.10
2018,10,23,02,12,5.10
2018,10,23,02,13,5.00
2018,10,23,02,14,5.00
2018,10,23,02,15,5.00
2018,10,23,02,16,4.90
2018,10,23,02,17,4.90
2018,10,23,02,18,4.90
2018,10,23,02,19,4.90
2018,10,23,02,20,4.90
2018,10,23,02,21,4.80
2018,10,23,02,22,4.80
2018,10,23,02,23,4.80
2018,10,23,02,24,4.80
2018,10,23,02,25,4.80
2018,10,23,02,26,4.80
2018,10,23,02,27,4.80
2018,10,23,02,28,4.80
2018,10,23,02,29,4.80
2018,10,23,02,30,4.80
2018,10,23,02,31,4.80
2018,10,23,02,32,4.70
2018,10,23,02,33,4.70
2018,10,23,02,34,4.80
2018,10,23,02,35,4.80
2018,10,23,02,36,4.80
2018,10,23,02,37,4.80
2018,10,23,02,38,4.80
2018,10,23,02,39,4.80
2018,10,23,02,40,4.80
2018,10,23,02,41,4.80
2018,10,23,02,42,4.80
2018,10,23,02,43,4.80
2018,10,23,02,44,4.80
2018,10,23,02,45,4.80
2018,10,23,02,46,4.80
2018,10,23,02,47,4.80
2018,10,23,02,48,4.80
2018,10,23,02,49,4.70
2018,10,23,02,50,4.70
2018,10,23,02,51,4.70
2018,10,23,02,52,4.70
2018,10,23,02,53,4.70
2018,10,23,02,54,4.70
2018,10,23,02,55,4.60
2018,10,23,02,56,4.60
2018,10,23,02,57,4.60
2018,10,23,02,58,4.60
2018,10,23,02,59,4.50
2018,10,23,03,00,4.50
2018,10,23,03,01,4.50
2018,10,23,03,02,4.50
2018,10,23,03,03,4.40
2018,10,23,03,04,4.40
2018,10,23,03,05,4.40
2018,10,23,03,06,4.40
2018,10,23,03,07,4.40
2018,10,23,03,08,4.30
2018,10,23,03,09,4.30
2018,10,23,03,10,4.30
2018,10,23,03,11,4.30
2018,10,23,03,12,4.30
2018,10,23,03,13,4.30
2018,10,23,03,14,4.30
2018,10,23,03,15,4.30
2018,10,23,03,16,4.30
2018,10,23,03,17,4.30
2018,10,23,03,18,4.30
2018,10,23,03,19,4.30
2018,10,23,03,20,4.30
2018,10,23,03,21,4.30
2018,10,23,03,22,4.30
2018,10,23,03,23,4.30
2018,10,23,03,24,4.30
2018,10,23,03,25,4.30
2018,10,23,03,26,4.30
2018,10,23,03,27,4.30
2018,10,23,03,28,4.20
2018,10,23,03,29,4.20
2018,10,23,03,30,4.20
2018,10,23,03,31,4.20
2018,10,23,03,32,4.20
2018,10,23,03,33,4.20
2018,10,23,03,34,4.20
2018,10,23,03,35,4.20
2018,10,23,03,36,4.20
2018,10,23,03,37,4.20
2018,10,23,03,38,4.20
2018,10,23,03,39,4.20
2018,10,23,03,40,4.20
2018,10,23,03,41,4.20
2018,10,23,03,42,4.20
2018,10,23,03,43,4.20
2018,10,23,03,44,4.20
2018,10,23,03,45,4.20
2018,10,23,03,46,4.20
2018,10,23,03,47,4.20
2018,10,23,03,48,4.20
2018,10,23,03,49,4.20
2018,10,23,03,50,4.20
2018,10,23,03,51,4.20
2018,10,23,03,52,4.20
2018,10,23,03,53,4.20
2018,10,23,03,54,4.30
2018,10,23,03,55,4.30
2018,10,23,03,56,4.30
2018,10,23,03,57,4.30
2018,10,23,03,58,4.30
2018,10,23,03,59,4.30
2018,10,23,04,00,4.30
2018,10,23,04,01,4.30
2018,10,23,04,02,4.30
2018,10,23,04,03,4.40
2018,10,23,04,04,4.40
2018,10,23,04,05,4.40
2018,10,23,04,06,4.50
2018,10,23,04,07,4.50
2018,10,23,04,08,4.50
2018,10,23,04,09,4.50
2018,10,23,04,10,4.60
2018,10,23,04,11,4.60
2018,10,23,04,12,4.60
2018,10,23,04,13,4.60
2018,10,23,04,14,4.60
2018,10,23,04,15,4.60
2018,10,23,04,16,4.60
2018,10,23,04,17,4.60
2018,10,23,04,18,4.60
2018,10,23,04,19,4.60
2018,10,23,04,20,4.60
2018,10,23,04,21,4.60
2018,10,23,04,22,4.60
2018,10,23,04,23,4.60
2018,10,23,04,24,4.60
2018,10,23,04,25,4.60
2018,10,23,04,26,4.60
2018,10,23,04,27,4.60
2018,10,23,04,28,4.60
2018,10,23,04,29,4.60
2018,10,23,04,30,4.60
2018,10,23,04,31,4.60
2018,10,23,04,32,4.60
2018,10,23,04,33,4.60
2018,10,23,04,34,4.60
2018,10,23,04,35,4.60
2018,10,23,04,36,4.60
2018,10,23,04,37,4.60
2018,10,23,04,38,4.60
2018,10,23,04,39,4.60
2018,10,23,04,40,4.60
2018,10,23,04,41,4.70
2018,10,23,04,42,4.70
2018,10,23,04,43,4.70
2018,10,23,04,44,4.70
2018,10,23,04,45,4.70
2018,10,23,04,46,4.70
2018,10,23,04,47,4.70
2018,10,23,04,48,4.70
2018,10,23,04,49,4.70
2018,10,23,04,50,4.80
2018,10,23,04,51,4.80
2018,10,23,04,52,4.80
2018,10,23,04,53,4.80
2018,10,23,04,54,4.80
2018,10,23,04,55,4.80
2018,10,23,04,56,4.80
2018,10,23,04,57,4.90
2018,10,23,04,58,4.90
2018,10,23,04,59,4.90
2018,10,23,05,00,4.90
2018,10,23,05,01,4.90
2018,10,23,05,02,4.90
2018,10,23,05,03,4.90
2018,10,23,05,04,4.90
2018,10,23,05,05,4.90
2018,10,23,05,06,5.00
2018,10,23,05,07,5.00
2018,10,23,05,08,5.00
2018,10,23,05,09,5.00
2018,10,23,05,10,5.00
2018,10,23,05,11,5.10
2018,10,23,05,12,5.10
2018,10,23,05,13,5.10
2018,10,23,05,14,5.10
2018,10,23,05,15,5.10
2018,10,23,05,16,5.10
2018,10,23,05,17,5.10
2018,10,23,05,18,5.10
2018,10,23,05,19,5.10
2018,10,23,05,20,5.10
2018,10,23,05,21,5.20
2018,10,23,05,22,5.20
2018,10,23,05,23,5.20
2018,10,23,05,24,5.20
2018,10,23,05,25,5.20
2018,10,23,05,26,5.20
2018,10,23,05,27,5.20
2018,10,23,05,28,5.20
2018,10,23,05,29,5.20
2018,10,23,05,30,5.20
2018,10,23,05,31,5.20
2018,10,23,05,32,5.20
2018,10,23,05,33,5.20
2018,10,23,05,34,5.20
2018,10,23,05,35,5.20
2018,10,23,05,36,5.30
2018,10,23,05,37,5.30
2018,10,23,05,38,5.30
2018,10,23,05,39,5.30
2018,10,23,05,40,5.30
2018,10,23,05,41,5.30
2018,10,23,05,42,5.30
2018,10,23,05,43,5.30
2018,10,23,05,44,5.30
2018,10,23,05,45,5.30
2018,10,23,05,46,5.30
2018,10,23,05,47,5.30
2018,10,23,05,48,5.30
2018,10,23,05,49,5.30
2018,10,23,05,50,5.30
2018,10,23,05,51,5.30
2018,10,23,05,52,5.30
2018,10,23,05,53,5.30
2018,10,23,05,54,5.30
2018,10,23,05,55,5.30
2018,10,23,05,56,5.30
2018,10,23,05,57,5.30
2018,10,23,05,58,5.30
2018,10,23,05,59,5.30
2018,10,23,06,00,5.30
2018,10,23,06,01,5.30
2018,10,23,06,02,5.30
2018,10,23,06,03,5.30
2018,10,23,06,04,5.30
2018,10,23,06,05,5.40
2018,10,23,06,06,5.40
2018,10,23,06,07,5.40
2018,10,23,06,08,5.40
2018,10,23,06,09,5.40
2018,10,23,06,10,5.40
2018,10,23,06,11,5.40
2018,10,23,06,12,5.40
2018,10,23,06,13,5.40
2018,10,23,06,14,5.40
2018,10,23,06,15,5.40
2018,10,23,06,16,5.40
2018,10,23,06,17,5.40
2018,10,23,06,18,5.40
2018,10,23,06,19,5.40
2018,10,23,06,20,5.40
2018,10,23,06,21,5.40
2018,10,23,06,22,5.40
2018,10,23,06,23,5.40
2018,10,23,06,24,5.40
2018,10,23,06,25,5.40
2018,10,23,06,26,5.40
2018,10,23,06,27,5.40
2018,10,23,06,28,5.40
2018,10,23,06,29,5.40
2018,10,23,06,30,5.40
2018,10,23,06,31,5.40
2018,10,23,06,32,5.40
2018,10,23,06,33,5.40
2018,10,23,06,34,5.40
2018,10,23,06,35,5.30
2018,10,23,06,36,5.30
2018,10,23,06,37,5.30
2018,10,23,06,38,5.30
2018,10,23,06,39,5.30
2018,10,23,06,40,5.30
2018,10,23,06,41,5.30
2018,10,23,06,42,5.30
2018,10,23,06,43,5.30
2018,10,23,06,44,5.30
2018,10,23,06,45,5.30
2018,10,23,06,46,5.30
2018,10,23,06,47,5.30
2018,10,23,06,48,5.30
2018,10,23,06,49,5.30
2018,10,23,06,50,5.40
2018,10,23,06,51,5.40
2018,10,23,06,52,5.40
2018,10,23,06,53,5.40
2018,10,23,06,54,5.40
2018,10,23,06,55,5.40
2018,10,23,06,56,5.40
2018,10,23,06,57,5.40
2018,10,23,06,58,5.40
2018,10,23,06,59,5.40
2018,10,23,07,00,5.40
2018,10,23,07,01,5.40
2018,10,23,07,02,5.40
2018,10,23,07,03,5.40
2018,10,23,07,04,5.50
2018,10,23,07,05,5.40
2018,10,23,07,06,5.50
2018,10,23,07,07,5.50
2018,10,23,07,08,5.50
2018,10,23,07,09,5.50
2018,10,23,07,10,5.50
2018,10,23,07,11,5.50
2018,10,23,07,12,5.50
2018,10,23,07,13,5.50
2018,10,23,07,14,5.50
2018,10,23,07,15,5.50
2018,10,23,07,16,5.50
2018,10,23,07,17,5.50
2018,10,23,07,18,5.50
2018,10,23,07,19,5.50
2018,10,23,07,20,5.50
2018,10,23,07,21,5.50
2018,10,23,07,22,5.50
2018,10,23,07,23,5.50
2018,10,23,07,24,5.50
2018,10,23,07,25,5.50
2018,10,23,07,26,5.50
2018,10,23,07,27,5.50
2018,10,23,07,28,5.40
2018,10,23,07,29,5.40
2018,10,23,07,30,5.40
2018,10,23,07,31,5.40
2018,10,23,07,32,5.40
2018,10,23,07,33,5.40
2018,10,23,07,34,5.40
2018,10,23,07,35,5.40
2018,10,23,07,36,5.40
2018,10,23,07,37,5.40
2018,10,23,07,38,5.40
2018,10,23,07,39,5.40
2018,10,23,07,40,5.40
2018,10,23,07,41,5.40
2018,10,23,07,42,5.50
2018,10,23,07,43,5.40
2018,10,23,07,44,5.50
2018,10,23,07,45,5.50
2018,10,23,07,46,5.50
2018,10,23,07,47,5.50
2018,10,23,07,48,5.50
2018,10,23,07,49,5.50
2018,10,23,07,50,5.50
2018,10,23,07,51,5.50
2018,10,23,07,52,5.50
2018,10,23,07,53,5.50
2018,10,23,07,54,5.50
2018,10,23,07,55,5.60
2018,10,23,07,56,5.60
2018,10,23,07,57,5.60
2018,10,23,07,58,5.60
2018,10,23,07,59,5.60
2018,10,23,08,00,5.60
2018,10,23,08,01,5.60
2018,10,23,08,02,5.60
2018,10,23,08,03,5.60
2018,10,23,08,04,5.60
2018,10,23,08,05,5.60
2018,10,23,08,06,5.60
2018,10,23,08,07,5.60
2018,10,23,08,08,5.60
2018,10,23,08,09,5.60
2018,10,23,08,10,5.60
2018,10,23,08,11,5.60
2018,10,23,08,12,5.60
2018,10,23,08,13,5.60
2018,10,23,08,14,5.60
2018,10,23,08,15,5.60
2018,10,23,08,16,5.60
2018,10,23,08,17,5.60
2018,10,23,08,18,5.60
2018,10,23,08,19,5.70
2018,10,23,08,20,5.70
2018,10,23,08,21,5.70
2018,10,23,08,22,5.70
2018,10,23,08,23,5.70
2018,10,23,08,24,5.70
2018,10,23,08,25,5.70
2018,10,23,08,26,5.70
2018,10,23,08,27,5.70
2018,10,23,08,28,5.70
2018,10,23,08,29,5.70
2018,10,23,08,30,5.70
2018,10,23,08,31,5.80
2018,10,23,08,32,5.80
2018,10,23,08,33,5.80
2018,10,23,08,34,5.80
2018,10,23,08,35,5.80
2018,10,23,08,36,5.80
2018,10,23,08,37,5.80
2018,10,23,08,38,5.80
2018,10,23,08,39,5.80
2018,10,23,08,40,5.80
2018,10,23,08,41,5.80
2018,10,23,08,42,5.80
2018,10,23,08,43,5.80
2018,10,23,08,44,5.80
2018,10,23,08,45,5.80
2018,10,23,08,46,5.80
2018,10,23,08,47,5.80
2018,10,23,08,48,5.80
2018,10,23,08,49,5.80
2018,10,23,08,50,5.90
2018,10,23,08,51,5.90
2018,10,23,08,52,5.90
2018,10,23,08,53,5.90
2018,10,23,08,54,5.90
2018,10,23,08,55,5.90
2018,10,23,08,56,5.90
2018,10,23,08,57,5.90
2018,10,23,08,58,5.90
2018,10,23,08,59,6.00
2018,10,23,09,00,6.00
2018,10,23,09,01,6.00
2018,10,23,09,02,6.00
2018,10,23,09,03,6.00
2018,10,23,09,04,6.00
2018,10,23,09,05,6.00
2018,10,23,09,06,6.00
2018,10,23,09,07,6.10
2018,10,23,09,08,6.10
2018,10,23,09,09,6.10
2018,10,23,09,10,6.10
2018,10,23,09,11,6.10
2018,10,23,09,12,6.10
2018,10,23,09,13,6.10
2018,10,23,09,14,6.10
2018,10,23,09,15,6.10
2018,10,23,09,16,6.20
2018,10,23,09,17,6.20
2018,10,23,09,18,6.20
2018,10,23,09,19,6.20
2018,10,23,09,20,6.30
2018,10,23,09,21,6.30
2018,10,23,09,22,6.30
2018,10,23,09,23,6.30
2018,10,23,09,24,6.30
2018,10,23,09,25,6.30
2018,10,23,09,26,6.30
2018,10,23,09,27,6.30
2018,10,23,09,28,6.30
2018,10,23,09,29,6.30
2018,10,23,09,30,6.30
2018,10,23,09,31,6.30
2018,10,23,09,32,6.30
2018,10,23,09,33,6.30
2018,10,23,09,34,6.30
2018,10,23,09,35,6.30
2018,10,23,09,36,6.40
2018,10,23,09,37,6.40
2018,10,23,09,38,6.40
2018,10,23,09,39,6.40
2018,10,23,09,40,6.40
2018,10,23,09,41,6.50
2018,10,23,09,42,6.50
2018,10,23,09,43,6.50
2018,10,23,09,44,6.50
2018,10,23,09,45,6.60
2018,10,23,09,46,6.60
2018,10,23,09,47,6.60
2018,10,23,09,48,6.60
2018,10,23,09,49,6.70
2018,10,23,09,50,6.70
2018,10,23,09,51,6.70
2018,10,23,09,52,6.70
2018,10,23,09,53,6.80
2018,10,23,09,54,6.80
2018,10,23,09,55,6.80
2018,10,23,09,56,6.80
2018,10,23,09,57,6.80
2018,10,23,09,58,6.80
2018,10,23,09,59,6.80
2018,10,23,10,00,6.90
2018,10,23,10,01,6.90
2018,10,23,10,02,6.90
2018,10,23,10,03,6.90
2018,10,23,10,04,6.90
2018,10,23,10,05,7.00
2018,10,23,10,06,7.00
2018,10,23,10,07,7.10
2018,10,23,10,08,7.10
2018,10,23,10,09,7.10
2018,10,23,10,10,7.10
2018,10,23,10,11,7.10
2018,10,23,10,12,7.20
2018,10,23,10,13,7.20
2018,10,23,10,14,7.20
2018,10,23,10,15,7.20
2018,10,23,10,16,7.30
2018,10,23,10,17,7.30
2018,10,23,10,18,7.30
2018,10,23,10,19,7.30
2018,10,23,10,20,7.30
2018,10,23,10,21,7.30
2018,10,23,10,22,7.40
2018,10,23,10,23,7.40
2018,10,23,10,24,7.40
2018,10,23,10,25,7.40
2018,10,23,10,26,7.40
2018,10,23,10,27,7.50
2018,10,23,10,28,7.50
2018,10,23,10,29,7.60
2018,10,23,10,30,7.60
2018,10,23,10,31,7.60
2018,10,23,10,32,7.70
2018,10,23,10,33,7.70
2018,10,23,10,34,7.70
2018,10,23,10,35,7.70
2018,10,23,10,36,7.80
2018,10,23,10,37,7.80
2018,10,23,10,38,7.80
2018,10,23,10,39,7.80
2018,10,23,10,40,7.80
2018,10,23,10,41,7.80
2018,10,23,10,42,7.90
2018,10,23,10,43,8.00
2018,10,23,10,44,8.10
2018,10,23,10,45,8.10
2018,10,23,10,46,8.20
2018,10,23,10,47,8.20
2018,10,23,10,48,8.20
2018,10,23,10,49,8.20
2018,10,23,10,50,8.30
2018,10,23,10,51,8.30
2018,10,23,10,52,8.30
2018,10,23,10,53,8.40
2018,10,23,10,54,8.40
2018,10,23,10,55,8.50
2018,10,23,10,56,8.60
2018,10,23,10,57,8.60
2018,10,23,10,58,8.70
2018,10,23,10,59,8.70
2018,10,23,11,00,8.80
2018,10,23,11,01,8.80
2018,10,23,11,02,8.90
2018,10,23,11,03,8.90
2018,10,23,11,04,9.00
2018,10,23,11,05,9.00
2018,10,23,11,06,8.90
2018,10,23,11,07,8.90
2018,10,23,11,08,9.00
2018,10,23,11,09,9.00
2018,10,23,11,10,9.00
2018,10,23,11,11,9.00
2018,10,23,11,12,9.00
2018,10,23,11,13,9.00
2018,10,23,11,14,9.00
2018,10,23,11,15,9.10
2018,10,23,11,16,9.20
2018,10,23,11,17,9.20
2018,10,23,11,18,9.30
2018,10,23,11,19,9.20
2018,10,23,11,20,9.20
2018,10,23,11,21,9.10
2018,10,23,11,22,9.10
2018,10,23,11,23,9.20
2018,10,23,11,24,9.30
2018,10,23,11,25,9.30
2018,10,23,11,26,9.40
2018,10,23,11,27,9.50
2018,10,23,11,28,9.60
2018,10,23,11,29,9.80
2018,10,23,11,30,9.90
2018,10,23,11,31,10.00
2018,10,23,11,32,10.10
2018,10,23,11,33,10.20
2018,10,23,11,34,10.30
2018,10,23,11,35,10.30
2018,10,23,11,36,10.30
2018,10,23,11,37,10.40
2018,10,23,11,38,10.50
2018,10,23,11,39,10.60
2018,10,23,11,40,10.70
2018,10,23,11,41,10.90
2018,10,23,11,42,11.00
2018,10,23,11,43,11.10
2018,10,23,11,44,11.20
2018,10,23,11,45,11.20
2018,10,23,11,46,11.30
2018,10,23,11,47,11.30
2018,10,23,11,48,11.30
2018,10,23,11,49,11.30
2018,10,23,11,50,11.20
2018,10,23,11,51,11.10
2018,10,23,11,52,11.00
2018,10,23,11,53,10.90
2018,10,23,11,54,10.90
2018,10,23,11,55,10.80
2018,10,23,11,56,10.60
2018,10,23,11,57,10.50
2018,10,23,11,58,10.40
2018,10,23,11,59,10.40
2018,10,23,12,00,10.40
2018,10,23,12,01,10.40
2018,10,23,12,02,10.30
2018,10,23,12,03,10.30
2018,10,23,12,04,10.30
2018,10,23,12,05,10.30
2018,10,23,12,06,10.30
2018,10,23,12,07,10.40
2018,10,23,12,08,10.60
2018,10,23,12,09,10.80
2018,10,23,12,10,10.90
2018,10,23,12,11,11.00
2018,10,23,12,12,11.20
2018,10,23,12,13,11.30
2018,10,23,12,14,11.50
2018,10,23,12,15,11.60
2018,10,23,12,16,11.80
2018,10,23,12,17,11.90
2018,10,23,12,18,12.10
2018,10,23,12,19,12.20
2018,10,23,12,20,12.30
2018,10,23,12,21,12.40
2018,10,23,12,22,12.50
2018,10,23,12,23,12.60
2018,10,23,12,24,12.70
2018,10,23,12,25,12.70
2018,10,23,12,26,12.50
2018,10,23,12,27,12.40
2018,10,23,12,28,12.30
2018,10,23,12,29,12.20
2018,10,23,12,30,12.20
2018,10,23,12,31,12.30
2018,10,23,12,32,12.30
2018,10,23,12,33,12.30
2018,10,23,12,34,12.40
2018,10,23,12,35,12.60
2018,10,23,12,36,12.70
2018,10,23,12,37,12.80
2018,10,23,12,38,12.90
2018,10,23,12,39,12.80
2018,10,23,12,40,12.90
2018,10,23,12,41,13.00
2018,10,23,12,42,13.10
2018,10,23,12,43,13.20
2018,10,23,12,44,13.30
2018,10,23,12,45,13.40
2018,10,23,12,46,13.50
2018,10,23,12,47,13.50
2018,10,23,12,48,13.60
2018,10,23,12,49,13.80
2018,10,23,12,50,13.80
2018,10,23,12,51,13.80
2018,10,23,12,52,13.80
2018,10,23,12,53,13.80
2018,10,23,12,54,13.80
2018,10,23,12,55,13.80
2018,10,23,12,56,13.80
2018,10,23,12,57,13.90
2018,10,23,12,58,13.90
2018,10,23,12,59,14.00
2018,10,23,13,00,14.10
2018,10,23,13,01,14.20
2018,10,23,13,02,14.30
2018,10,23,13,03,14.40
2018,10,23,13,04,14.50
2018,10,23,13,05,14.50
2018,10,23,13,06,14.60
2018,10,23,13,07,14.70
2018,10,23,13,08,14.70
2018,10,23,13,09,14.80
2018,10,23,13,10,14.80
2018,10,23,13,11,14.80
2018,10,23,13,12,14.80
2018,10,23,13,13,14.90
2018,10,23,13,14,14.90
2018,10,23,13,15,14.90
2018,10,23,13,16,14.90
2018,10,23,13,17,15.00
2018,10,23,13,18,15.00
2018,10,23,13,19,15.00
2018,10,23,13,20,15.00
2018,10,23,13,21,15.00
2018,10,23,13,22,14.90
2018,10,23,13,23,14.90
2018,10,23,13,24,14.80
2018,10,23,13,25,14.70
2018,10,23,13,26,14.50
2018,10,23,13,27,14.30
2018,10,23,13,28,14.10
2018,10,23,13,29,13.90
2018,10,23,13,30,13.90
2018,10,23,13,31,13.80
2018,10,23,13,32,13.80
2018,10,23,13,33,13.80
2018,10,23,13,34,13.80
2018,10,23,13,35,13.70
2018,10,23,13,36,13.70
2018,10,23,13,37,13.70
2018,10,23,13,38,13.70
2018,10,23,13,39,13.70
2018,10,23,13,40,13.70
2018,10,23,13,41,13.70
2018,10,23,13,42,13.70
2018,10,23,13,43,13.70
2018,10,23,13,44,13.80
2018,10,23,13,45,13.80
2018,10,23,13,46,13.80
2018,10,23,13,47,13.80
2018,10,23,13,48,13.70
2018,10,23,13,49,13.70
2018,10,23,13,50,13.70
2018,10,23,13,51,13.70
2018,10,23,13,52,13.70
2018,10,23,13,53,13.60
2018,10,23,13,54,13.60
2018,10,23,13,55,13.60
2018,10,23,13,56,13.60
2018,10,23,13,57,13.60
2018,10,23,13,58,13.60
2018,10,23,13,59,13.60
2018,10,23,14,00,13.60
2018,10,23,14,01,13.60
2018,10,23,14,02,13.60
2018,10,23,14,03,13.60
2018,10,23,14,04,13.60
2018,10,23,14,05,13.60
2018,10,23,14,06,13.60
2018,10,23,14,07,13.60
2018,10,23,14,08,13.60
2018,10,23,14,09,13.50
2018,10,23,14,10,13.50
2018,10,23,14,11,13.40
2018,10,23,14,12,13.40
2018,10,23,14,13,13.40
2018,10,23,14,14,13.40
2018,10,23,14,15,13.30
2018,10,23,14,16,13.30
2018,10,23,14,17,13.30
2018,10,23,14,18,13.30
2018,10,23,14,19,13.30
2018,10,23,14,20,13.30
2018,10,23,14,21,13.30
2018,10,23,14,22,13.30
2018,10,23,14,23,13.30
2018,10,23,14,24,13.30
2018,10,23,14,25,13.30
2018,10,23,14,26,13.30
2018,10,23,14,27,13.30
2018,10,23,14,28,13.30
2018,10,23,14,29,13.30
2018,10,23,14,30,13.30
2018,10,23,14,31,13.30
2018,10,23,14,32,13.30
2018,10,23,14,33,13.30
2018,10,23,14,34,13.20
2018,10,23,14,35,13.20
2018,10,23,14,36,13.20
2018,10,23,14,37,13.20
2018,10,23,14,38,13.10
2018,10,23,14,39,13.10
2018,10,23,14,40,13.10
2018,10,23,14,41,13.00
2018,10,23,14,42,13.00
2018,10,23,14,43,13.00
2018,10,23,14,44,13.00
2018,10,23,14,45,12.90
2018,10,23,14,46,12.90
2018,10,23,14,47,12.80
2018,10,23,14,48,12.80
2018,10,23,14,49,12.80
2018,10,23,14,50,12.80
2018,10,23,14,51,12.70
2018,10,23,14,52,12.70
2018,10,23,14,53,12.70
2018,10,23,14,54,12.60
2018,10,23,14,55,12.60
2018,10,23,14,56,12.60
2018,10,23,14,57,12.60
2018,10,23,14,58,12.60
2018,10,23,14,59,12.50
2018,10,23,15,00,12.50
2018,10,23,15,01,12.50
2018,10,23,15,02,12.40
2018,10,23,15,03,12.40
2018,10,23,15,04,12.30
2018,10,23,15,05,12.30
2018,10,23,15,06,12.20
2018,10,23,15,07,12.20
2018,10,23,15,08,12.10
2018,10,23,15,09,12.10
2018,10,23,15,10,12.10
2018,10,23,15,11,12.00
2018,10,23,15,12,12.00
2018,10,23,15,13,12.00
2018,10,23,15,14,12.00
2018,10,23,15,15,11.90
2018,10,23,15,16,11.90
2018,10,23,15,17,11.90
2018,10,23,15,18,11.90
2018,10,23,15,19,11.90
2018,10,23,15,20,11.90
2018,10,23,15,21,11.90
2018,10,23,15,22,11.90
2018,10,23,15,23,11.90
2018,10,23,15,24,11.90
2018,10,23,15,25,11.90
2018,10,23,15,26,11.90
2018,10,23,15,27,11.90
2018,10,23,15,28,12.00
2018,10,23,15,29,12.00
2018,10,23,15,30,12.00
2018,10,23,15,31,12.00
2018,10,23,15,32,12.00
2018,10,23,15,33,12.00
2018,10,23,15,34,12.00
2018,10,23,15,35,12.00
2018,10,23,15,36,12.00
2018,10,23,15,37,12.00
2018,10,23,15,38,12.00
2018,10,23,15,39,12.00
2018,10,23,15,40,11.90
2018,10,23,15,41,11.90
2018,10,23,15,42,11.90
2018,10,23,15,43,11.90
2018,10,23,15,44,11.90
2018,10,23,15,45,11.90
2018,10,23,15,46,11.90
2018,10,23,15,47,11.90
2018,10,23,15,48,11.90
2018,10,23,15,49,11.90
2018,10,23,15,50,11.90
2018,10,23,15,51,11.80
2018,10,23,15,52,11.80
2018,10,23,15,53,11.80
2018,10,23,15,54,11.80
2018,10,23,15,55,11.70
2018,10,23,15,56,11.70
2018,10,23,15,57,11.70
2018,10,23,15,58,11.70
2018,10,23,15,59,11.60
2018,10,23,16,00,11.60
2018,10,23,16,01,11.60
2018,10,23,16,02,11.60
2018,10,23,16,03,11.60
2018,10,23,16,04,11.60
2018,10,23,16,05,11.60
2018,10,23,16,06,11.60
2018,10,23,16,07,11.50
2018,10,23,16,08,11.50
2018,10,23,16,09,11.50
2018,10,23,16,10,11.50
2018,10,23,16,11,11.50
2018,10,23,16,12,11.50
2018,10,23,16,13,11.50
2018,10,23,16,14,11.50
2018,10,23,16,15,11.50
2018,10,23,16,16,11.50
2018,10,23,16,17,11.60
2018,10,23,16,18,11.60
2018,10,23,16,19,11.60
2018,10,23,16,20,11.60
2018,10,23,16,21,11.60
2018,10,23,16,22,11.70
2018,10,23,16,23,11.70
2018,10,23,16,24,11.70
2018,10,23,16,25,11.70
2018,10,23,16,26,11.70
2018,10,23,16,27,11.70
2018,10,23,16,28,11.70
2018,10,23,16,29,11.70
2018,10,23,16,30,11.60
2018,10,23,16,31,11.60
2018,10,23,16,32,11.60
2018,10,23,16,33,11.60
2018,10,23,16,34,11.60
2018,10,23,16,35,11.60
2018,10,23,16,36,11.60
2018,10,23,16,37,11.60
2018,10,23,16,38,11.60
2018,10,23,16,39,11.60
2018,10,23,16,40,11.60
2018,10,23,16,41,11.70
2018,10,23,16,42,11.70
2018,10,23,16,43,11.70
2018,10,23,16,44,11.70
2018,10,23,16,45,11.70
2018,10,23,16,46,11.70
2018,10,23,16,47,11.70
2018,10,23,16,48,11.70
2018,10,23,16,49,11.70
2018,10,23,16,50,11.70
2018,10,23,16,51,11.70
2018,10,23,16,52,11.70
2018,10,23,16,53,11.70
2018,10,23,16,54,11.70
2018,10,23,16,55,11.70
2018,10,23,16,56,11.70
2018,10,23,16,57,11.70
2018,10,23,16,58,11.70
2018,10,23,16,59,11.70
2018,10,23,17,00,11.70
2018,10,23,17,01,11.70
2018,10,23,17,02,11.70
2018,10,23,17,03,11.60
2018,10,23,17,04,11.70
2018,10,23,17,05,11.60
2018,10,23,17,06,11.60
2018,10,23,17,07,11.60
2018,10,23,17,08,11.60
2018,10,23,17,09,11.60
2018,10,23,17,10,11.60
2018,10,23,17,11,11.60
2018,10,23,17,12,11.60
2018,10,23,17,13,11.60
2018,10,23,17,14,11.60
2018,10,23,17,15,11.50
2018,10,23,17,16,11.50
2018,10,23,17,17,11.50
2018,10,23,17,18,11.50
2018,10,23,17,19,11.50
2018,10,23,17,20,11.50
2018,10,23,17,21,11.40
2018,10,23,17,22,11.40
2018,10,23,17,23,11.40
2018,10,23,17,24,11.40
2018,10,23,17,25,11.40
2018,10,23,17,26,11.40
2018,10,23,17,27,11.40
2018,10,23,17,28,11.40
2018,10,23,17,29,11.40
2018,10,23,17,30,11.40
2018,10,23,17,31,11.40
2018,10,23,17,32,11.40
2018,10,23,17,33,11.30
2018,10,23,17,34,11.40
2018,10,23,17,35,11.30
2018,10,23,17,36,11.30
2018,10,23,17,37,11.30
2018,10,23,17,38,11.30
2018,10,23,17,39,11.40
2018,10,23,17,40,11.40
2018,10,23,17,41,11.40
2018,10,23,17,42,11.40
2018,10,23,17,43,11.40
2018,10,23,17,44,11.40
2018,10,23,17,45,11.40
2018,10,23,17,46,11.40
2018,10,23,17,47,11.40
2018,10,23,17,48,11.30
2018,10,23,17,49,11.40